Preview of NWS' New Version of Forecast
This preview is not operational and should not be used for support decisions.

Regional Weather Roundup (RWR)

Issued by National Weather Service (NWS)

                            
000
ASPQ40 PGUM 200810
RWRPQ 
WEATHER ROUNDUP FOR THE MARIANAS AND MICRONESIA
NATIONAL WEATHER SERVICE TIYAN GU
600 PM CHST SAT JUL 20 2019

GUZ001>004-200900-
MARIANA ISLANDS-
  
CITY           SKY/WX    TMP DP  RH WIND       PRES   REMARKS
GUAM AIRPORT   SUNNY     82  75  78 SE5       29.81R                  
ANDERSEN AFB   PTSUNNY   82  77  83 S7        29.84  HX  91           
ROTA AIRPORT   PTSUNNY   81  75  83 SE12      29.80R                  
TINIAN AP      PTSUNNY   86  75  70 SE6       29.79R HX  95           
SAIPAN AP      PTSUNNY   82  77  83 SE3       29.80S HX  91           

$$

PMZ161-200900-
REPUBLIC OF PALAU-
  
CITY           SKY/WX    TMP DP  RH WIND       PRES   REMARKS
KOROR AP       PTSUNNY   84  77  79 NW6       29.75R HX  94           
KOROR WSO      NOT AVBL                                               

$$

PMZ171>174-200900-
FEDERATED STATES OF MICRONESIA-
  
CITY           SKY/WX    TMP DP  RH WIND       PRES   REMARKS
YAP AIRPORT    PTSUNNY   86  77  74 VRB5      29.77R HX  97           
CHUUK AP       MOCLDY    82  79  89 VRB6      29.77S HX  93           
POHNPEI AP     MOCLDY    84  77  79 E5        29.79R HX  94           
POHNPEI WSO    MOCLDY    82  77  83 VRB3      29.82R HX  91           
KOSRAE AP      NOT AVBL                                               

$$

PMZ181-200900-
REPUBLIC OF THE MARSHALL ISLANDS-
  
CITY           SKY/WX    TMP DP  RH WIND       PRES   REMARKS
KWAJALEIN AP   CLEAR     86  75  70 S3        29.80R HX  95           
MAJURO AP      NOT AVBL                                               
MAJURO WSO     PTCLDY    84  75  74 CALM      29.79R HX  92           

$$